Regional Weather Roundup
Issued by NWS

Home | Current Version | Previous Version | Graphics & Text | Print | Product List | Glossary On
Versions: 1 2 3 4 5 6 7 8 9 10 11 12 13 14 15 16 17 18 19 20 21 22 23 24 25 26 27 28 29 30 31 32 33 34 35 36 37 38 39 40 41 42 43 44 45 46 47 48 49 50
000
ASUS45 KABQ 311510
RWRNM
WEATHER ROUNDUP FOR NEW MEXICO
NATIONAL WEATHER SERVICE ALBUQUERQUE NM
800 AM MST SAT JAN 31 2015

NOTE: "FAIR" MEANS FEW OR NO CLOUDS BELOW 12,000 FEET AGL WITH NO
       SIGNIFICANT WEATHER OR OBSTRUCTIONS TO VISION.

      THIS PRODUCT IS RELEASED AS TWO VERSIONS.  ONE VERSION NEAR
      THE TOP OF THE HOUR CONTAINING PRELIMINARY DATA FROM ALBUQUERQUE
      AND OTHER STATIONS.  A FINAL VERSION WITH ADDITIONAL DATA IS
      ISSUED ABOUT 10 MINUTES AFTER THE HOUR.

NMZ501-503-504-510>518-311600-
NORTHWEST PLATEAU/NORTHCENTRAL MOUNTAINS

CITY           SKY/WX    TMP DP  RH WIND       PRES   REMARKS
FARMINGTON     LGT RAIN  33  32  96 CALM      29.90R VSB 1/2
LOS ALAMOS     LGT SNOW  28  28 100 CALM      29.92F
SANTA FE       CLOUDY    30  27  88 S7        29.92S WCI  23
TAOS           CLOUDY    28  25  86 CALM      29.93F
ANGEL FIRE     LGT SNOW  32  30  92 SE3         N/A

$$
NMZ402-403-502-505>509-311600-
WESTCENTRAL MOUNTAINS/SOUTHWEST MOUNTAINS

CITY           SKY/WX    TMP DP  RH WIND       PRES   REMARKS
GALLUP         CLOUDY    33  32  96 CALM      29.90R
GRANTS         CLOUDY    32  31  97 SE6       29.92S WCI  26
SILVER CITY    LGT RAIN  41  41 100 CALM      29.92R VSB 1

$$
NMZ407-409-411-412-311600-
SOUTHERN DESERTS

CITY           SKY/WX    TMP DP  RH WIND       PRES   REMARKS
LORDSBURG      DRIZZLE   43  41  93 SE6       29.89R
DEMING         LGT RAIN  42  42 100 E8        29.91R VSB 1/2
LAS CRUCES     CLOUDY    42  41  97 CALM      29.92S
HOLLOMAN AFB   LGT RAIN  41  41 100 CALM      29.92R
ALAMOGORDO     LGT RAIN  41  41 100 CALM      29.94R
T OR C         CLOUDY    41  40  96 N3        29.90S FOG

$$
NMZ519>523-311600-
CENTRAL VALLEYS/CENTRAL HIGHLANDS

CITY           SKY/WX    TMP DP  RH WIND       PRES   REMARKS
ALBUQUERQUE    LGT SNOW  33  32  96 NW5       29.94R VSB 3/4 WCI  29
DOUBLE EAGLE   LGT SNOW  30  28  93 N5        29.94R VSB 3/4 WCI  25
MORIARTY ARPT  LGT SNOW  30  28  94 CALM      29.95R
CLINES CORNERS LGT SNOW  28  26  92 E5        29.90S FOG     WCI  23
BELEN          LGT SNOW  32  32 100 CALM      29.94S
SOCORRO        CLOUDY    36  35  99 N6        29.94R WCI  31

$$
NMZ524>526-539-540-311600-
SOUTHCENTRAL MOUNTAINS

CITY           SKY/WX    TMP DP  RH WIND       PRES   REMARKS
RUIDOSO        FOG       28  28 100 CALM      29.95R VSB<1/4

$$
NMZ527>531-311600-
NORTHEAST HIGHLANDS/NORTHEAST PLAINS

CITY           SKY/WX    TMP DP  RH WIND       PRES   REMARKS
LAS VEGAS      CLOUDY    26  25  96 S6        29.91F WCI  19
RATON          FOG       28  28 100 S7        29.92R VSB 1/4 WCI  21
CLAYTON        CLOUDY    32  31  96 SW13      29.94S WCI  22

$$
NMZ532>537-311600-
EASTCENTRAL PLAINS

CITY           SKY/WX    TMP DP  RH WIND       PRES   REMARKS
TUCUMCARI      CLOUDY    36  34  92 S3        29.97S
CANNON AFB     PTSUNNY   34  32  93 CALM      29.98F
CLOVIS AIRPORT CLOUDY    34  32  93 SE6       29.98F WCI  29

$$
NMZ028-029-538-311600-
SOUTHEAST PLAINS

CITY           SKY/WX    TMP DP  RH WIND       PRES   REMARKS
ROSWELL        FOG       39  37  92 CALM      29.98S VSB 3/4
ARTESIA        FOG       39  39 100 CALM      29.99S VSB 3/4
CARLSBAD       CLOUDY    42  39  89 NW6       29.97F FOG
HOBBS          CLOUDY    39  39 100 CALM      29.99S FOG


$$



USA.gov is the U.S. government's official web portal to all federal, state and local government web resources and services.